| time (UTC) | temp F | wind direction | speed MPH | gust MPH | rain 1hr in | rain 24hr in | rain mn in | humidity % | barometer mb |
| 20260506061522 | 67 | 198 | 2.0 | 5.0 | 0.00 | 0.00 | 0.00 | 39 | 996.9 |
| 20260506044513 | 72 | 141 | 3.0 | 6.0 | 0.00 | 0.00 | 0.00 | 29 | 995.7 |
| 20260506043013 | 72 | 121 | 3.0 | 7.0 | 0.00 | 0.00 | 0.00 | 29 | 995.6 |
| 20260506041515 | 72 | 128 | 4.0 | 7.0 | 0.00 | 0.00 | 0.00 | 29 | 995.4 |
| 20260506040011 | 72 | 129 | 4.0 | 8.0 | 0.00 | 0.00 | 0.00 | 29 | 995.3 |
| 20260506034511 | 73 | 148 | 2.0 | 7.0 | 0.00 | 0.00 | 0.00 | 28 | 995.1 |
| 20260506033010 | 73 | 146 | 2.0 | 7.0 | 0.00 | 0.00 | 0.00 | 28 | 994.9 |
| 20260506031550 | 73 | 153 | 1.0 | 5.0 | 0.00 | 0.00 | 0.00 | 28 | 994.7 |
| 20260506030019 | 74 | 146 | 3.0 | 7.0 | 0.00 | 0.00 | 0.00 | 27 | 994.4 |
| 20260506024521 | 75 | 163 | 2.0 | 7.0 | 0.00 | 0.00 | 0.00 | 26 | 994.2 |
| 20260506023007 | 76 | 139 | 3.0 | 6.0 | 0.00 | 0.00 | 0.00 | 25 | 993.9 |
| 20260506021507 | 77 | 209 | 2.0 | 7.0 | 0.00 | 0.00 | 0.00 | 24 | 993.7 |
| 20260506020006 | 78 | 150 | 4.0 | 10.0 | 0.00 | 0.00 | 0.00 | 23 | 993.6 |
| 20260506014504 | 79 | 194 | 4.0 | 8.0 | 0.00 | 0.00 | 0.00 | 23 | 993.5 |
| 20260506013007 | 80 | 168 | 4.0 | 8.0 | 0.00 | 0.00 | 0.00 | 23 | 993.4 |
| 20260506011504 | 81 | 206 | 6.0 | 11.0 | 0.00 | 0.00 | 0.00 | 21 | 993.3 |
| 20260506010002 | 81 | 223 | 5.0 | 9.0 | 0.00 | 0.00 | 0.00 | 22 | 993.2 |
| 20260506004601 | 81 | 165 | 4.0 | 8.0 | 0.00 | 0.00 | 0.00 | 21 | 993.2 |
| 20260506003100 | 81 | 192 | 4.0 | 10.0 | 0.00 | 0.00 | 0.00 | 21 | 993.2 |
| 20260506001609 | 80 | 250 | 4.0 | 9.0 | 0.00 | 0.00 | 0.00 | 21 | 993.2 |
| 20260506000058 | 80 | 289 | 4.0 | 11.0 | 0.00 | 0.00 | 0.00 | 22 | 993.2 |
| 20260505234600 | 80 | 250 | 3.0 | 7.0 | 0.00 | 0.00 | 0.00 | 21 | 993.3 |
| 20260505233055 | 81 | 215 | 2.0 | 9.0 | 0.00 | 0.00 | 0.00 | 22 | 993.2 |
| 20260505231603 | 79 | 302 | 2.0 | 5.0 | 0.00 | 0.00 | 0.00 | 22 | 993.2 |
| 20260505230059 | 78 | 211 | 2.0 | 9.0 | 0.00 | 0.00 | 0.00 | 22 | 993.3 |
| 20260505224553 | 79 | 219 | 4.0 | 9.0 | 0.00 | 0.00 | 0.00 | 23 | 993.4 |
| 20260505223050 | 79 | 213 | 3.0 | 8.0 | 0.00 | 0.00 | 0.00 | 23 | 993.6 |
| 20260505221549 | 80 | 257 | 5.0 | 9.0 | 0.00 | 0.00 | 0.00 | 23 | 993.7 |
| 20260505220046 | 79 | 213 | 1.0 | 9.0 | 0.00 | 0.00 | 0.00 | 24 | 994.0 |
| 20260505214545 | 77 | 227 | 2.0 | 10.0 | 0.00 | 0.00 | 0.00 | 25 | 994.1 |
| 20260505213053 | 78 | 221 | 5.0 | 10.0 | 0.00 | 0.00 | 0.00 | 25 | 994.3 |
| 20260505211547 | 78 | 200 | 5.0 | 8.0 | 0.00 | 0.00 | 0.00 | 26 | 994.5 |
| 20260505210043 | 78 | 250 | 6.0 | 13.0 | 0.00 | 0.00 | 0.00 | 25 | 994.7 |
| 20260505204542 | 78 | 265 | 7.0 | 12.0 | 0.00 | 0.00 | 0.00 | 25 | 994.7 |
| 20260505203045 | 79 | 141 | 6.0 | 14.0 | 0.00 | 0.00 | 0.00 | 25 | 994.8 |
| 20260505201543 | 79 | 196 | 4.0 | 12.0 | 0.00 | 0.00 | 0.00 | 25 | 995.0 |
| 20260505200040 | 78 | 155 | 5.0 | 12.0 | 0.00 | 0.00 | 0.00 | 25 | 995.1 |
| 20260505194537 | 78 | 224 | 4.0 | 10.0 | 0.00 | 0.00 | 0.00 | 27 | 995.1 |
| 20260505193035 | 78 | 173 | 6.0 | 13.0 | 0.00 | 0.00 | 0.00 | 28 | 995.3 |
| 20260505191533 | 76 | 157 | 5.0 | 10.0 | 0.00 | 0.00 | 0.00 | 29 | 995.3 |
| 20260505190030 | 75 | 229 | 6.0 | 10.0 | 0.00 | 0.00 | 0.00 | 30 | 995.5 |
| 20260505184530 | 75 | 221 | 1.0 | 7.0 | 0.00 | 0.00 | 0.00 | 31 | 995.6 |
| 20260505183035 | 75 | 249 | 7.0 | 12.0 | 0.00 | 0.00 | 0.00 | 30 | 995.8 |
| 20260505181528 | 75 | 302 | 5.0 | 11.0 | 0.00 | 0.00 | 0.00 | 29 | 995.9 |
| 20260505180043 | 75 | 259 | 6.0 | 11.0 | 0.00 | 0.00 | 0.00 | 30 | 996.0 |
| 20260505174525 | 74 | 241 | 4.0 | 11.0 | 0.00 | 0.00 | 0.00 | 32 | 995.9 |
| 20260505173023 | 73 | 154 | 4.0 | 9.0 | 0.00 | 0.00 | 0.00 | 33 | 995.9 |
| 20260505171523 | 72 | 210 | 1.0 | 7.0 | 0.00 | 0.00 | 0.00 | 34 | 996.0 |
| 20260505170022 | 72 | 173 | 2.0 | 10.0 | 0.00 | 0.00 | 0.00 | 34 | 996.0 |
| 20260505164519 | 72 | 240 | 4.0 | 7.0 | 0.00 | 0.00 | 0.00 | 34 | 995.9 |
| 20260505163017 | 72 | 211 | 1.0 | 7.0 | 0.00 | 0.00 | 0.00 | 36 | 995.8 |
| 20260505161515 | 71 | 219 | 1.0 | 7.0 | 0.00 | 0.00 | 0.00 | 36 | 995.8 |
| 20260505153012 | 69 | 167 | 3.0 | 6.0 | 0.00 | 0.00 | 0.00 | 38 | 995.8 |
| 20260505151511 | 68 | 208 | 3.0 | 8.0 | 0.00 | 0.00 | 0.00 | 39 | 995.8 |
| 20260505124559 | 60 | 138 | 0.0 | 1.0 | 0.00 | 0.00 | 0.00 | 53 | 994.8 |
| 20260505123100 | 60 | 157 | 0.0 | 6.0 | 0.00 | 0.00 | 0.00 | 53 | 994.8 |
| 20260505121555 | 61 | 184 | 0.0 | 4.0 | 0.00 | 0.00 | 0.00 | 53 | 994.7 |
| 20260505120054 | 61 | 157 | 2.0 | 6.0 | 0.00 | 0.00 | 0.00 | 52 | 994.7 |
| 20260505114556 | 61 | 147 | 2.0 | 7.0 | 0.00 | 0.00 | 0.00 | 49 | 994.8 |
| 20260505113054 | 61 | 171 | 1.0 | 7.0 | 0.00 | 0.00 | 0.00 | 49 | 994.9 |
| 20260505111548 | 61 | 152 | 4.0 | 8.0 | 0.00 | 0.00 | 0.00 | 48 | 994.7 |
| 20260505101556 | 64 | 142 | 5.0 | 9.0 | 0.00 | 0.00 | 0.00 | 45 | 994.4 |
| 20260505100055 | 65 | 130 | 6.0 | 11.0 | 0.00 | 0.00 | 0.00 | 44 | 994.3 |
| 20260505094533 | 66 | 123 | 6.0 | 13.0 | 0.00 | 0.00 | 0.00 | 43 | 994.2 |
| 20260505093031 | 66 | 140 | 7.0 | 12.0 | 0.00 | 0.00 | 0.00 | 41 | 994.3 |
| 20260505091529 | 66 | 143 | 1.0 | 8.0 | 0.00 | 0.00 | 0.00 | 40 | 994.3 |
| 20260505090026 | 66 | 138 | 4.0 | 8.0 | 0.00 | 0.00 | 0.00 | 40 | 994.4 |
| 20260505084525 | 66 | 227 | 0.0 | 4.0 | 0.00 | 0.00 | 0.00 | 40 | 994.5 |
| 20260505083024 | 66 | 110 | 1.0 | 4.0 | 0.00 | 0.00 | 0.00 | 40 | 994.5 |
| 20260505081520 | 67 | 148 | 1.0 | 6.0 | 0.00 | 0.00 | 0.00 | 39 | 994.7 |
| 20260505080019 | 67 | 208 | 3.0 | 7.0 | 0.00 | 0.00 | 0.00 | 38 | 994.6 |
| 20260505074517 | 67 | 155 | 0.0 | 4.0 | 0.00 | 0.00 | 0.00 | 37 | 994.6 |
| 20260505073031 | 68 | 120 | 3.0 | 7.0 | 0.00 | 0.00 | 0.00 | 36 | 994.5 |